SPACEBEE-95 (48945 NORAD) Tracking and Keplerian Element Data

This shows tracking and keplerian element data for the satellite.

Feedback or suggestion? Click here.




ElementValue
Catalog48945
NameSPACEBEE-95
Epoch Orbit1672
Epoch Day287.31210601
Epoch Year2021
RAAN54.7742
Inclination97.5207
Eccentricity0.0016825
Argument of Perigee230.9482
Mean Anonmoly129.0254
Mean Motion15.14956785
Decay Rate8.433E-05
L11 48945U 21059BU 21287.31210601 .00008433 00000-0 45408-3 0 9993
L22 48945 97.5207 54.7742 0016825 230.9482 129.0254 15.14956785 16721

Live tracking and technical data element details for SPACEBEE-95 (NORAD 48945). SPACEBEE-95 can be tracked NOW for your location showing map with azimuth and elevation plus other details from your city location.

Track the satellite on the map from your city or location and see movement details for azimuth, elevation, latitude, longitude, range, height, and movement on the map or in text.







IsCatalogInMostPopularTable: catalog: 48945, numindb: 23
Update: records affected: 1



GetName: 48945 SPACEBEE-95

Hit Count: updated at: Tue, 19 Oct 2021 09:25:27 GMT